Location: Contre
(49.7477°N, 2.0963°E)
Time: 12:13:31
(UTC+00:00)

Meteor 2-12 Rocket - Pass Details

Date: 18 November 2025
Orbit: 935 x 957 km, 82.5° (Epoch: 05 December)

Event Time Altitude Azimuth Distance (km) Brightness Sun altitude
Rises 17:00:24 0° 351° (N) 3,628 7.4 -9.0°
Reaches altitude 10° 17:02:57 10° 354° (N) 2,675 6.7 -9.4°
Maximum altitude 17:09:02 66° 77° (ENE) 1,022 4.4 -10.3°
Drops below altitude 10° 17:15:02 10° 160° (SSE) 2,644 6.7 -11.3°
Sets 17:17:31 0° 163° (SSE) 3,582 7.5 -11.7°
